CW6245 Weather Reports


time (UTC)temp
C
wind
direction
speed
KPH
gust
KPH
rain 1hr
cm
rain 24hr
cm
rain mn
cm
humidity
%
barometer
mb
20260903005244 14 198 8.0 17.7 0.00 0.00 0.00 61 733.5
20260903004744 14 197 9.7 24.1 0.00 0.00 0.00 61 733.5
20260903004244 15 195 11.3 20.9 0.00 0.00 0.00 60 733.5
20260903003750 15 196 9.7 24.1 0.00 0.00 0.00 60 733.5
20260903003247 15 203 8.0 20.9 0.00 0.00 0.00 60 733.5
20260903002744 15 201 9.7 25.7 0.00 0.00 0.00 58 733.5
20260903002244 15 205 8.0 22.5 0.00 0.00 0.00 58 733.8
20260903001744 15 200 6.4 17.7 0.00 0.00 0.00 58 733.5
20260903001247 15 212 8.0 17.7 0.00 0.00 0.00 57 733.5
20260903000744 15 235 3.2 19.3 0.00 0.00 0.00 57 733.5
20260903000250 16 201 8.0 19.3 0.00 0.00 0.00 58 733.5
20260902235747 16 201 8.0 20.9 0.00 0.00 0.00 57 733.5
20260902235247 16 201 6.4 17.7 0.00 0.00 0.00 58 733.8
20260902234744 16 202 11.3 25.7 0.00 0.00 0.00 59 733.5
20260902234250 16 209 8.0 22.5 0.00 0.00 0.00 57 733.8
20260902233744 16 204 6.4 17.7 0.00 0.00 0.00 55 733.8
20260902233244 16 204 6.4 20.9 0.00 0.00 0.00 57 733.8
20260902232744 16 201 8.0 14.5 0.00 0.00 0.00 58 733.8
20260902232244 16 199 1.6 22.5 0.00 0.00 0.00 58 733.8
20260902231747 17 198 11.3 22.5 0.00 0.00 0.00 56 733.8
20260902231247 16 219 4.8 17.7 0.00 0.00 0.00 57 733.8
20260902230747 16 205 4.8 22.5 0.00 0.00 0.00 58 733.8
20260902230247 17 211 4.8 19.3 0.00 0.00 0.00 56 733.8
20260902225745 17 207 8.0 17.7 0.00 0.00 0.00 56 733.8
20260902225244 16 198 1.6 14.5 0.00 0.00 0.00 57 733.8
20260902224747 16 235 1.6 19.3 0.00 0.00 0.00 57 734.2
20260902224250 17 199 6.4 20.9 0.00 0.00 0.00 55 734.2
20260902223748 17 191 6.4 16.1 0.00 0.00 0.00 56 734.2
20260902223244 17 184 4.8 17.7 0.00 0.00 0.00 55 734.2
20260902222744 18 199 9.7 19.3 0.00 0.00 0.00 53 734.2
20260902222244 18 207 3.2 17.7 0.00 0.00 0.00 53 734.2
20260902221744 17 212 3.2 16.1 0.00 0.00 0.00 54 734.5
20260902221250 18 250 1.6 14.5 0.00 0.00 0.00 51 734.5
20260902220744 19 253 1.6 14.5 0.00 0.00 0.00 52 734.5
20260902220244 18 188 0.0 11.3 0.00 0.00 0.00 55 734.5
20260902215748 18 198 4.8 12.9 0.00 0.00 0.00 53 734.5
20260902215250 18 290 3.2 14.5 0.00 0.00 0.00 50 734.5
20260902214744 19 72 3.2 8.0 0.00 0.00 0.00 50 734.5
20260902214244 18 207 3.2 9.7 0.00 0.00 0.00 51 734.5
20260902213744 18 318 1.6 16.1 0.00 0.00 0.00 52 734.5
20260902213244 18 295 3.2 11.3 0.00 0.00 0.00 53 734.5
20260902212744 19 220 4.8 12.9 0.00 0.00 0.00 51 734.5
20260902212250 18 246 1.6 9.7 0.00 0.00 0.00 54 734.8
20260902211744 17 183 1.6 16.1 0.00 0.00 0.00 56 734.5
20260902211244 18 206 4.8 16.1 0.00 0.00 0.00 54 734.8
20260902210747 18 268 1.6 12.9 0.00 0.00 0.00 52 734.5
20260902210251 19 160 3.2 12.9 0.00 0.00 0.00 55 734.8
20260902205744 18 212 4.8 12.9 0.00 0.00 0.00 53 734.8
20260902205244 18 204 1.6 16.1 0.00 0.00 0.00 56 734.8
20260902204748 18 61 1.6 12.9 0.00 0.00 0.00 52 734.8
20260902204247 18 241 1.6 9.7 0.00 0.00 0.00 54 734.8
20260902203747 18 224 1.6 11.3 0.00 0.00 0.00 54 734.8
20260902203247 18 216 1.6 12.9 0.00 0.00 0.00 53 734.8
20260902202745 18 147 1.6 14.5 0.00 0.00 0.00 53 734.8
20260902202244 18 255 1.6 14.5 0.00 0.00 0.00 54 734.8
20260902201744 18 238 1.6 14.5 0.00 0.00 0.00 52 734.8
20260902201244 18 217 3.2 12.9 0.00 0.00 0.00 54 734.8
20260902200744 18 292 1.6 11.3 0.00 0.00 0.00 52 734.8
20260902200244 18 265 3.2 12.9 0.00 0.00 0.00 53 734.8
20260902195745 17 208 4.8 11.3 0.00 0.00 0.00 55 735.2
20260902195244 18 225 3.2 9.7 0.00 0.00 0.00 56 735.2
20260902194744 17 237 0.0 17.7 0.00 0.00 0.00 55 734.8
20260902194244 18 215 3.2 12.9 0.00 0.00 0.00 53 735.2
20260902193744 17 239 0.0 11.3 0.00 0.00 0.00 54 735.2
20260902193247 18 236 1.6 8.0 0.00 0.00 0.00 52 735.2
20260902192744 18 308 3.2 11.3 0.00 0.00 0.00 51 735.2
20260902192250 18 333 1.6 6.4 0.00 0.00 0.00 54 735.2
20260902191747 17 224 1.6 8.0 0.00 0.00 0.00 53 735.2
20260902191245 17 228 3.2 11.3 0.00 0.00 0.00 55 735.2
20260902190747 17 315 3.2 8.0 0.00 0.00 0.00 56 735.2
20260902190247 16 4 1.6 17.7 0.00 0.00 0.00 54 735.2
20260902185744 17 123 1.6 12.9 0.00 0.00 0.00 52 735.2
20260902185245 17 194 1.6 9.7 0.00 0.00 0.00 56 735.2
20260902184750 17 178 3.2 11.3 0.00 0.00 0.00 55 735.2
20260902184247 17 104 3.2 9.7 0.00 0.00 0.00 54 735.5
20260902183744 17 256 1.6 8.0 0.00 0.00 0.00 59 735.5
20260902183244 16 246 1.6 11.3 0.00 0.00 0.00 62 735.5
20260902182744 16 168 4.8 12.9 0.00 0.00 0.00 59 735.5
20260902182247 16 193 3.2 16.1 0.00 0.00 0.00 62 735.5
20260902181747 16 243 1.6 11.3 0.00 0.00 0.00 66 735.5
20260902181244 16 186 3.2 14.5 0.00 0.00 0.00 63 735.5
20260902180744 16 246 3.2 12.9 0.00 0.00 0.00 65 735.5
20260902180247 15 177 4.8 16.1 0.00 0.00 0.00 68 735.5
20260902175747 15 203 6.4 17.7 0.00 0.00 0.00 67 735.5
20260902175244 15 231 1.6 16.1 0.00 0.00 0.00 67 735.5
20260902174744 15 210 4.8 14.5 0.00 0.00 0.00 69 735.2
20260902174245 14 211 4.8 16.1 0.00 0.00 0.00 71 735.2
20260902173750 14 186 8.0 16.1 0.00 0.00 0.00 71 735.2
20260902173244 13 198 6.4 14.5 0.00 0.00 0.00 73 735.2
20260902172747 13 202 6.4 14.5 0.00 0.00 0.00 74 735.2
20260902172247 14 186 8.0 14.5 0.00 0.00 0.00 74 735.2
20260902171747 14 166 8.0 16.1 0.00 0.00 0.00 73 735.2
20260902171244 13 192 8.0 14.5 0.00 0.00 0.00 75 735.2
20260902170744 13 202 3.2 11.3 0.00 0.00 0.00 76 735.2
20260902170244 13 186 4.8 16.1 0.00 0.00 0.00 76 735.2
20260902165747 13 188 9.7 14.5 0.00 0.00 0.00 75 735.2
20260902165244 13 187 4.8 14.5 0.00 0.00 0.00 74 735.2
20260902164747 13 195 6.4 14.5 0.00 0.00 0.00 77 735.2
20260902164244 13 190 8.0 11.3 0.00 0.00 0.00 77 735.2
20260902163744 13 196 8.0 12.9 0.00 0.00 0.00 78 735.2
20260902163244 13 188 6.4 11.3 0.00 0.00 0.00 77 734.8
20260902162744 13 183 6.4 12.9 0.00 0.00 0.00 76 735.2
20260902162244 14 187 4.8 11.3 0.00 0.00 0.00 75 735.2
20260902161747 13 194 4.8 12.9 0.00 0.00 0.00 76 734.8
20260902161244 13 193 6.4 12.9 0.00 0.00 0.00 76 734.8
20260902160744 13 171 8.0 11.3 0.00 0.00 0.00 77 734.8
20260902160244 13 191 6.4 9.7 0.00 0.00 0.00 77 734.8
20260902155744 13 182 6.4 12.9 0.00 0.00 0.00 77 734.8
20260902155244 13 188 6.4 12.9 0.00 0.00 0.00 78 734.8
20260902154744 13 182 6.4 11.3 0.00 0.00 0.00 77 734.8
20260902154244 13 194 3.2 9.7 0.00 0.00 0.00 77 734.8
20260902153744 13 182 6.4 9.7 0.00 0.00 0.00 80 734.8
20260902153244 13 200 3.2 11.3 0.00 0.00 0.00 80 734.8
20260902152747 13 197 3.2 11.3 0.00 0.00 0.00 80 734.8
20260902152244 12 205 6.4 11.3 0.00 0.00 0.00 81 734.8
20260902151744 12 195 3.2 11.3 0.00 0.00 0.00 82 734.8
20260902151247 12 185 8.0 14.5 0.00 0.00 0.00 81 734.8
20260902150744 12 175 8.0 9.7 0.00 0.00 0.00 81 734.5
20260902150244 12 190 4.8 9.7 0.00 0.00 0.00 82 734.5
20260902145747 12 188 3.2 14.5 0.00 0.00 0.00 82 734.5
20260902145247 12 185 4.8 11.3 0.00 0.00 0.00 82 734.5
20260902144747 12 195 4.8 11.3 0.00 0.00 0.00 82 734.5
20260902144247 12 185 4.8 11.3 0.00 0.00 0.00 82 734.5
20260902143744 11 190 3.2 9.7 0.00 0.00 0.00 83 734.5
20260902143244 11 187 6.4 14.5 0.00 0.00 0.00 83 734.5
20260902142744 11 192 6.4 14.5 0.00 0.00 0.00 83 734.5
20260902142244 11 190 8.0 12.9 0.00 0.00 0.00 82 734.5
20260902141747 11 197 6.4 12.9 0.00 0.00 0.00 82 734.5
20260902141244 11 204 6.4 14.5 0.00 0.00 0.00 81 734.5
20260902140744 11 197 8.0 14.5 0.00 0.00 0.00 81 734.5
20260902140244 11 203 6.4 12.9 0.00 0.00 0.00 80 734.2
20260902135745 11 211 4.8 17.7 0.00 0.00 0.00 81 734.2
20260902135244 11 212 4.8 11.3 0.00 0.00 0.00 81 734.2
20260902134744 11 199 6.4 14.5 0.00 0.00 0.00 81 734.2
20260902134245 11 204 6.4 14.5 0.00 0.00 0.00 80 734.2
20260902133744 11 214 4.8 16.1 0.00 0.00 0.00 80 734.2
20260902133245 11 216 4.8 12.9 0.00 0.00 0.00 80 733.8
20260902132747 11 208 4.8 14.5 0.00 0.00 0.00 80 733.8
20260902132244 11 201 6.4 14.5 0.00 0.00 0.00 80 733.8
20260902131747 11 203 4.8 12.9 0.00 0.00 0.00 81 733.8
20260902131247 11 195 6.4 14.5 0.00 0.00 0.00 83 733.8
20260902130744 11 201 6.4 16.1 0.00 0.00 0.00 85 733.8
20260902130247 11 197 8.0 17.7 0.00 0.00 0.00 85 733.8
20260902125747 11 193 8.0 17.7 0.00 0.00 0.00 86 733.8
20260902125247 11 199 9.7 16.1 0.00 0.00 0.00 86 733.8
20260902124747 11 198 8.0 16.1 0.00 0.00 0.00 86 733.8
20260902124244 11 199 8.0 17.7 0.00 0.00 0.00 85 733.8
20260902123744 11 197 8.0 16.1 0.00 0.00 0.00 85 733.8
20260902123250 11 198 8.0 16.1 0.00 0.00 0.00 85 733.8
20260902122747 11 204 6.4 16.1 0.00 0.00 0.00 86 733.8
20260902122244 11 203 8.0 17.7 0.00 0.00 0.00 86 733.8
20260902121744 11 199 8.0 17.7 0.00 0.00 0.00 87 733.8
20260902121247 11 199 8.0 14.5 0.00 0.00 0.00 87 733.8
20260902120744 11 199 8.0 16.1 0.00 0.00 0.00 88 733.8
20260902120244 11 200 8.0 20.9 0.00 0.00 0.00 88 733.8
20260902115745 11 209 8.0 20.9 0.00 0.00 0.00 88 733.8
20260902115247 11 194 9.7 16.1 0.00 0.00 0.00 88 733.8
20260902114744 11 196 8.0 19.3 0.00 0.00 0.00 89 733.8
20260902114247 11 192 9.7 17.7 0.00 0.00 0.00 89 733.8
20260902113747 11 199 8.0 16.1 0.00 0.00 0.00 89 733.8
20260902113247 11 202 8.0 17.7 0.00 0.00 0.00 89 733.8
20260902112744 11 194 9.7 17.7 0.00 0.00 0.00 89 733.8
20260902112247 11 201 9.7 19.3 0.00 0.00 0.00 88 733.8
20260902111747 11 201 8.0 16.1 0.00 0.00 0.00 88 733.8
20260902111244 11 200 9.7 17.7 0.00 0.00 0.00 88 733.8
20260902110750 11 190 11.3 16.1 0.00 0.00 0.00 88 733.8
20260902110247 11 195 9.7 16.1 0.00 0.00 0.00 89 733.8
20260902105750 11 191 9.7 16.1 0.00 0.00 0.00 90 733.8
20260902105244 11 192 9.7 16.1 0.00 0.00 0.00 89 733.8
20260902104744 11 197 9.7 17.7 0.00 0.00 0.00 89 733.8
20260902104247 11 200 9.7 17.7 0.00 0.00 0.00 89 733.8
20260902103745 11 196 9.7 16.1 0.00 0.00 0.00 89 733.8
20260902103244 11 197 9.7 16.1 0.00 0.00 0.00 88 733.8
20260902102744 11 199 9.7 16.1 0.00 0.00 0.00 88 733.8
20260902102244 11 194 9.7 17.7 0.00 0.00 0.00 88 733.8
20260902101744 11 200 8.0 16.1 0.00 0.00 0.00 87 733.8
20260902101247 11 196 9.7 17.7 0.00 0.00 0.00 87 734.2
20260902100750 11 191 11.3 17.7 0.00 0.00 0.00 86 733.8
20260902100244 12 200 9.7 17.7 0.00 0.00 0.00 85 734.2
20260902095744 11 193 9.7 17.7 0.00 0.00 0.00 85 734.2
20260902095247 11 190 12.9 17.7 0.00 0.00 0.00 86 734.2
20260902094744 11 191 12.9 19.3 0.00 0.00 0.00 85 734.2
20260902094244 11 187 12.9 19.3 0.00 0.00 0.00 85 734.2
20260902093744 11 188 14.5 17.7 0.00 0.00 0.00 86 734.2
20260902093244 11 195 9.7 16.1 0.00 0.00 0.00 86 734.2
20260902092744 11 189 11.3 17.7 0.00 0.00 0.00 85 734.2
20260902092244 11 188 12.9 19.3 0.00 0.00 0.00 85 734.2
20260902091744 11 185 12.9 17.7 0.00 0.00 0.00 85 734.2
20260902091244 11 186 14.5 19.3 0.00 0.00 0.00 84 734.2
20260902090744 11 185 14.5 17.7 0.00 0.00 0.00 83 734.2
20260902090244 11 190 12.9 20.9 0.00 0.00 0.00 84 734.2
20260902085752 11 185 12.9 16.1 0.00 0.00 0.00 83 734.2
20260902085248 11 185 12.9 17.7 0.00 0.00 0.00 83 734.2
20260902084747 11 185 14.5 17.7 0.00 0.00 0.00 82 734.2
20260902084244 11 186 12.9 16.1 0.00 0.00 0.00 81 734.2
20260902083744 11 190 11.3 16.1 0.00 0.00 0.00 81 734.2
20260902083244 11 189 12.9 17.7 0.00 0.00 0.00 81 734.2
20260902082749 11 189 12.9 17.7 0.00 0.00 0.00 80 734.2
20260902082244 11 187 12.9 16.1 0.00 0.00 0.00 80 734.5
20260902081750 11 186 12.9 16.1 0.00 0.00 0.00 80 734.5
20260902081244 11 187 14.5 17.7 0.00 0.00 0.00 79 734.5
20260902080747 11 191 11.3 17.7 0.00 0.00 0.00 79 734.5
20260902080244 11 189 12.9 17.7 0.00 0.00 0.00 78 734.5
20260902075744 11 190 12.9 19.3 0.00 0.00 0.00 77 734.5
20260902075244 11 188 12.9 19.3 0.00 0.00 0.00 76 734.5
20260902074750 11 184 12.9 17.7 0.00 0.00 0.00 76 734.5
20260902074244 11 187 12.9 19.3 0.00 0.00 0.00 76 734.5
20260902073744 11 190 12.9 17.7 0.00 0.00 0.00 76 734.5
20260902073246 11 189 11.3 20.9 0.00 0.00 0.00 76 734.5
20260902072744 11 189 11.3 17.7 0.00 0.00 0.00 76 734.5
20260902072244 12 189 11.3 19.3 0.00 0.00 0.00 75 734.5
20260902071744 11 192 11.3 17.7 0.00 0.00 0.00 76 734.5
20260902071247 12 188 11.3 17.7 0.00 0.00 0.00 75 734.5
20260902070747 12 187 12.9 19.3 0.00 0.00 0.00 76 734.5
20260902070244 12 189 12.9 17.7 0.00 0.00 0.00 75 734.5
20260902065744 12 189 12.9 19.3 0.00 0.00 0.00 74 734.5
20260902065244 12 186 14.5 20.9 0.00 0.00 0.00 74 734.2
20260902064750 12 183 12.9 17.7 0.00 0.00 0.00 73 734.2
20260902064244 12 185 12.9 20.9 0.00 0.00 0.00 73 734.2
20260902063745 12 188 14.5 22.5 0.00 0.00 0.00 73 734.2
20260902063246 12 189 14.5 19.3 0.00 0.00 0.00 72 734.5
20260902062747 12 188 12.9 19.3 0.00 0.00 0.00 72 734.5
20260902062244 12 186 12.9 17.7 0.00 0.00 0.00 72 734.2
20260902061744 12 185 14.5 22.5 0.00 0.00 0.00 72 734.2
20260902061244 12 184 16.1 22.5 0.00 0.00 0.00 71 734.2
20260902060744 12 185 14.5 19.3 0.00 0.00 0.00 71 734.5
20260902060247 12 184 12.9 19.3 0.00 0.00 0.00 71 734.5
20260902055744 12 182 14.5 19.3 0.00 0.00 0.00 70 734.5
20260902055244 12 184 14.5 20.9 0.00 0.00 0.00 69 734.5
20260902054750 12 182 12.9 20.9 0.00 0.00 0.00 69 734.5
20260902054244 12 186 14.5 20.9 0.00 0.00 0.00 68 734.5
20260902053748 12 181 12.9 19.3 0.00 0.00 0.00 68 734.5
20260902053244 12 179 12.9 24.1 0.00 0.00 0.00 67 734.5
20260902052744 12 183 14.5 24.1 0.00 0.00 0.00 67 734.5
20260902052247 12 185 16.1 24.1 0.00 0.00 0.00 67 734.5
20260902051747 12 183 14.5 24.1 0.00 0.00 0.00 67 734.5
20260902051247 12 182 16.1 25.7 0.00 0.00 0.00 66 734.5
20260902050744 12 182 14.5 22.5 0.00 0.00 0.00 66 734.5
20260902050245 12 183 14.5 24.1 0.00 0.00 0.00 66 734.5
20260902045744 12 183 16.1 24.1 0.00 0.00 0.00 66 734.5
20260902045244 12 181 14.5 29.0 0.00 0.00 0.00 66 734.5
20260902044744 12 185 16.1 22.5 0.00 0.00 0.00 66 734.5
20260902044247 13 176 14.5 27.4 0.00 0.00 0.00 66 734.5
20260902043747 12 182 14.5 24.1 0.00 0.00 0.00 66 734.5
20260902043247 12 182 14.5 20.9 0.00 0.00 0.00 66 734.5
20260902042744 12 178 12.9 20.9 0.00 0.00 0.00 65 734.5
20260902042244 12 178 12.9 22.5 0.00 0.00 0.00 65 734.5
20260902041744 12 177 14.5 17.7 0.00 0.00 0.00 66 734.5
20260902041247 12 180 11.3 20.9 0.00 0.00 0.00 65 734.5
20260902040745 12 173 14.5 20.9 0.00 0.00 0.00 65 734.2
20260902040246 12 176 12.9 19.3 0.00 0.00 0.00 65 734.2
20260902035744 12 174 12.9 20.9 0.00 0.00 0.00 66 734.2
20260902035244 12 174 12.9 19.3 0.00 0.00 0.00 66 734.2
20260902034744 12 172 12.9 17.7 0.00 0.00 0.00 66 734.2
20260902034244 12 174 11.3 16.1 0.00 0.00 0.00 68 734.2
20260902033747 12 177 11.3 16.1 0.00 0.00 0.00 67 733.8
20260902033244 12 180 12.9 19.3 0.00 0.00 0.00 67 733.8
20260902032744 12 181 12.9 19.3 0.00 0.00 0.00 68 733.8
20260902032250 12 178 11.3 20.9 0.00 0.00 0.00 68 733.8
20260902031744 12 180 12.9 16.1 0.00 0.00 0.00 69 733.8
20260902031247 12 178 9.7 16.1 0.00 0.00 0.00 70 733.8
20260902030744 12 179 11.3 16.1 0.00 0.00 0.00 69 733.5
20260902030245 12 181 11.3 17.7 0.00 0.00 0.00 69 733.5
20260902025747 12 180 11.3 14.5 0.00 0.00 0.00 69 733.5
20260902025247 12 182 9.7 14.5 0.00 0.00 0.00 69 733.5
20260902024744 12 180 9.7 17.7 0.00 0.00 0.00 69 733.5
20260902024244 12 177 9.7 16.1 0.00 0.00 0.00 69 733.5
20260902023747 12 182 11.3 14.5 0.00 0.00 0.00 69 733.5
20260902023247 12 183 11.3 17.7 0.00 0.00 0.00 69 733.5
20260902022744 12 180 9.7 16.1 0.00 0.00 0.00 69 733.5
20260902022246 12 180 9.7 17.7 0.00 0.00 0.00 69 733.1
20260902021744 12 181 11.3 16.1 0.00 0.00 0.00 69 733.1
20260902021244 12 176 9.7 14.5 0.00 0.00 0.00 69 733.1
20260902020746 12 176 9.7 16.1 0.00 0.00 0.00 69 733.1
20260902020245 12 186 9.7 14.5 0.00 0.00 0.00 68 733.1
20260902015744 13 185 9.7 16.1 0.00 0.00 0.00 67 733.1
20260902015248 13 188 9.7 14.5 0.00 0.00 0.00 67 733.1
20260902014744 13 193 9.7 16.1 0.00 0.00 0.00 66 733.1
20260902014250 13 200 6.4 16.1 0.00 0.00 0.00 65 733.1
20260902013744 13 194 9.7 16.1 0.00 0.00 0.00 64 733.1
20260902013247 14 189 8.0 12.9 0.00 0.00 0.00 64 733.1
20260902012744 14 199 6.4 12.9 0.00 0.00 0.00 63 733.5
20260902012244 14 195 4.8 12.9 0.00 0.00 0.00 63 733.5
20260902011744 15 196 6.4 12.9 0.00 0.00 0.00 61 733.5
20260902011247 15 182 6.4 11.3 0.00 0.00 0.00 62 733.5
20260902010744 15 197 6.4 12.9 0.00 0.00 0.00 60 733.5
20260902010244 15 208 4.8 12.9 0.00 0.00 0.00 59 733.5
20260902005744 15 202 3.2 11.3 0.00 0.00 0.00 58 733.5